User: anonymous   Login
Location: Caltech
(34.1382°N, 118.1253°W)
Time: 13:48:40
(UTC-07:00)
Language:

CZ-2C R/B - Orbit

View from above orbital plane
View from above orbital plane
View from above satellite
View from above satellite

Ground track
Ground track

The orbit data is extracted from the following two-line orbital elements,

1 36089U 09061B   16243.52552802  .00000149  00000-0  48482-4 0  9991
2 36089  98.0518 252.3089 0081164 220.1756 302.4465 14.49593912359605
Epoch (UTC): 30 August 2016 12:36:45
Eccentricity: 0.0081164
inclination: 98.0518°
perigee height: 669 km
apogee height: 784 km
right ascension of ascending node: 252.3089°
argument of perigee: 220.1756°
revolutions per day: 14.49593912
mean anomaly at epoch: 302.4465°
orbit number at epoch: 35960

The dashed part of the orbit path shows where the satellite is in the earth's shadow,  

DLR